Regional Weather Roundup
Issued by NWS

Home | Current Version | Previous Version | Graphics & Text | Print | Product List | Glossary On
Versions: 1 2 3 4 5 6 7 8 9 10 11 12 13 14 15 16 17 18 19 20 21 22 23 24 25 26 27 28 29 30 31 32 33 34 35 36 37 38 39 40 41 42 43 44 45 46 47 48 49 50
000
ASUS43 KBIS 172220
RWRND

NORTH DAKOTA REGIONAL WEATHER ROUNDUP
NATIONAL WEATHER SERVICE BISMARCK ND
400 PM CST WED DEC 17 2014

NOTE: "FAIR" INDICATES FEW OR NO CLOUDS BELOW 12,000 FEET WITH NO
SIGNIFICANT WEATHER AND/OR OBSTRUCTIONS TO VISIBILITY.


NDZ001>003-009>011-017-172300-
NORTHWEST NORTH DAKOTA

CITY           SKY/WX    TMP DP  RH WIND       PRES   REMARKS
WILLISTON      CLOUDY    20  13  74 SE13      30.11R WCI   7
MINOT          PTCLDY    16   9  74 SE9       30.18S WCI   4
MINOT AFB      PTCLDY    15  12  88 SE9       30.18S WCI   3
$$

NDZ018>021-031>035-040>046-172300-
SOUTHWEST NORTH DAKOTA

CITY           SKY/WX    TMP DP  RH WIND       PRES   REMARKS
BISMARCK       PTCLDY    18  11  74 SE12      30.21R WCI   5
DICKINSON      CLOUDY    18  13  80 SE12      30.05S WCI   5
GARRISON         N/A     17  12  80 SE10      30.17R WCI   5
HETTINGER ARPT CLOUDY    17  14  88 SE12      30.07S WCI   4
$$

NDZ004>008-012>016-024-026-027-054-172300-
NORTHEAST NORTH DAKOTA

CITY           SKY/WX    TMP DP  RH WIND       PRES   REMARKS
GRAND FORKS    CLEAR     17  10  74 NE3       30.34R
GRND FRKS AFB  CLEAR     17  14  86 E2        30.33S
DEVILS LAKE    CLEAR     14   3  62 S5        30.24F WCI   6
$$

NDZ022-023-025-028>030-036>039-047>053-172300-
SOUTHEAST NORTH DAKOTA

CITY           SKY/WX    TMP DP  RH WIND       PRES   REMARKS
FARGO          CLEAR     19  11  70 NE7       30.31S WCI  10
JAMESTOWN      CLEAR     17  10  74 SE6       30.25S WCI   9
$$




USA.gov is the U.S. government's official web portal to all federal, state and local government web resources and services.